sat.trackr.live / text

‹ back to catalog

TAIJING-2 04

NORAD 58820 · 2024-016A

PAYLOAD ACTIVE UNKNOWN

§ Identity

Operator
Country
PRC
Launch date
2024-01-23
Launch site
JSC
Launch vehicle
Mass (kg)
RCS (m²)

External: N2YO · Heavens-Above · Gunter

§ Orbital elements

Epoch: 2026-09-21T22:07:02.411616Z

Period
92.24 min
Inclination
97.4467°
Eccentricity
0.0005344
Mean motion
15.61190852 rev/d
Perigee alt
380.6 km
Apogee alt
387.8 km
Semi-major
6,762.4 km
B*
3.7016e-4
RAAN
4.6311°
Arg perigee
62.0008°
Mean anomaly
298.1789°
Rev number
14,913

§ Raw data

TAIJING-2 041 58820U 24016A   26264.92155569  .00031263  00000+0  37016-3 0  99922 58820  97.4467   4.6311 0005344  62.0008 298.1789 15.61190852149139

JSON: /api/v1/satellites/58820 · /tle

For live sub-satellite position, see the globe view (requires WebGL).

§ Visibility from observer

Set your observer location to see the next 7 days of passes ≥ 10°. The values pass through the URL so the page stays shareable.

No JS? Fill the form by hand. The geolocation button needs JavaScript.

§ Radio — SatNOGS DB

ModeDescriptionDownlinkUplink
FM UHF 401.950 MHz

1 transmitter · refreshed weekly from db.satnogs.org